Regional Weather Roundup
Issued by NWS

Home | Current Version | Previous Version | Graphics & Text | Print | Product List | Glossary On
Versions: 1 2 3 4 5 6 7 8 9 10 11 12 13 14 15 16 17 18 19 20 21 22 23 24 25 26 27 28 29 30 31 32 33 34 35 36 37 38 39 40 41 42 43 44 45 46 47 48 49 50
517
ASUS43 KTOP 062108
RWRKS

WEATHER ROUNDUP FOR KANSAS
NATIONAL WEATHER SERVICE GOODLAND KS
300 PM CST SAT FEB 06 2016

NOTE:  "FAIR" INDICATES FEW OR NO CLOUDS BELOW 12,000 FEET WITH NO
SIGNIFICANT WEATHER AND/OR OBSTRUCTIONS TO VISIBILITY.

KSZ001>006-013>018-027>032-041>047-062200-
NORTHWEST KANSAS

CITY           SKY/WX    TMP DP  RH WIND       PRES   REMARKS
GOODLAND       CLOUDY    42  21  43 SW18G24   30.12F
HAYS           SUNNY     43  25  49 SW12      30.18F
HILL CITY      CLOUDY    42  26  53 SW13      30.15F
RUSSELL        SUNNY     41  27  57 SW15      30.17F
$$

KSZ061>065-074>080-084>089-062200-
SOUTHWEST KANSAS

CITY           SKY/WX    TMP DP  RH WIND       PRES   REMARKS
DODGE CITY     SUNNY     50  13  22 SW13G22   30.21F
ELKHART          N/A     55  13  19 S8          N/A
GARDEN CITY    SUNNY     52  16  24 SW15      30.18F
GREAT BEND     SUNNY     52  23  32 SW15      30.20F
LIBERAL        SUNNY     54  16  22 SW13G22   30.23F
PRATT          SUNNY     50  16  25 W14       30.23F
$$

KSZ066>073-081>083-090>101-062200-
SOUTHEAST KANSAS

CITY           SKY/WX    TMP DP  RH WIND       PRES   REMARKS
CHANUTE        SUNNY     51  29  42 SW9       30.26F
COFFEYVILLE    SUNNY     51  27  39 VRB6      30.28F
HUTCHINSON     SUNNY     51  23  33 SW8       30.23F
MEDICINE LODGE   N/A     53  19  26 W10       30.24F
NEWTON         SUNNY     48  25  40 W13       30.25F
PARSONS        SUNNY     51  29  42 SW13      30.28F
WICHITA INTL   MOSUNNY   51  23  33 W13       30.26F
WICHITA JABRA  SUNNY     49  25  39 SW12      30.25F
WICHITA MCCONL SUNNY     49  26  40 W12       30.26F
WINFIELD       SUNNY     50  29  44 SW7       30.29F
$$

KSZ007>012-019>026-033>040-048>060-102>105-062200-
NORTHEAST KANSAS

CITY           SKY/WX    TMP DP  RH WIND       PRES   REMARKS
CONCORDIA      SUNNY     47  25  42 SW14G25   30.16F
EMPORIA        SUNNY     49  28  44 W9G22     30.23F
LAWRENCE       SUNNY     49  29  46 SW13      30.22F
MANHATTAN      SUNNY     49  28  44 SW9       30.20F
MARYSVILLE     SUNNY     46  28  49 SW13      30.16F
OLATHE IND     LGT RAIN  48  30  49 SW13      30.24F
OLATHE EXE     SUNNY     47  29  49 W9        30.23F
SALINA         SUNNY     53  23  31 SW14      30.20F
TOPEKA BILLARD SUNNY     50  27  40 W12       30.21F
TOPEKA FORBES  SUNNY     50  29  44 SW13      30.20F
$$




USA.gov is the U.S. government's official web portal to all federal, state and local government web resources and services.